Flag for U.S.A. Weather past 2 weeks in Bozeman, Montana, U.S.A.

Now
46 °F

Clear.


Feels Like: 41 °F
Forecast: 37 / 67 °F
Wind: 9 mph from Southeast

Location: Gallatin Field

Current Time: Mar 31, 2015 at 12:47:31 AM

Latest Report: Mar 30, 2015 at 11:56 PM


Visibility: 10 mi

Pressure: 29.94 "Hg

Humidity: 50%

Dew point: 28 °F

Location of BozemanLocation

Historic Weather in Bozeman — Graph

°F

Bozeman temperature yesterday

Maximum temperature yesterday: 68 °F (at 5:56 PM)
Minimum temperature yesterday: 31 °F (at 5:56 AM)
Average temperature yesterday: 50 °F

Past Weeks' High & Low Weather Summary

 TemperatureHumidityPressure
High73 °F (Mar 27, 4:56 PM)97% (Mar 17, 9:56 PM)30.36 "Hg (Mar 17, 9:56 PM)
Low24 °F (Mar 29, 3:56 AM)13% (Mar 20, 3:56 PM)29.69 "Hg (Mar 28, 10:56 AM)
Average44 °F58%30.09 "Hg
* Reported Mar 15 11:56 PM — Mar 30 11:56 PM, Bozeman, Weather by CustomWeather, © 2015

Note: Actual official high and low records may vary slightly from our data, if they occured in-between our weather recording intervals... More about our weather records

Advertising

Bozeman weather history for previous 24 hours

 ConditionsComfort  
Time TempWeatherWind HumidityBarometerVisibility
11:56 PM
Mon, Mar 30
46 °FClear.9 mph50%29.94 "Hg10 mi
10:56 PM47 °FClear.6 mph44%29.96 "Hg10 mi
9:56 PM51 °FClear.7 mph35%29.97 "Hg10 mi
8:56 PM51 °FClear.12 mph42%29.98 "Hg10 mi
7:56 PM53 °FSunny.10 mph41%29.98 "Hg10 mi
6:56 PM64 °FSunny.6 mph27%29.97 "Hg10 mi
5:56 PM68 °FSunny.8 mph21%29.98 "Hg10 mi
4:56 PM67 °FSunny.5 mph20%29.98 "Hg10 mi
3:56 PM66 °FSunny.6 mph21%30.01 "Hg10 mi
2:56 PM64 °FSunny.No wind23%30.06 "Hg10 mi
1:56 PM63 °FSunny.7 mph26%30.09 "Hg10 mi
12:56 PM61 °FSunny.3 mph29%30.12 "Hg10 mi
11:56 AM59 °FSunny.5 mph28%30.13 "Hg10 mi
10:56 AM56 °FSunny.5 mph34%30.15 "Hg10 mi
9:56 AM50 °FScattered clouds.No wind48%30.17 "Hg10 mi
8:56 AM42 °FPassing clouds.3 mph57%30.18 "Hg10 mi
7:56 AM34 °FClear.8 mph79%30.19 "Hg10 mi
6:56 AM31 °FClear.6 mph79%30.18 "Hg10 mi
5:56 AM31 °FClear.9 mph79%30.16 "Hg10 mi
4:56 AM38 °FClear.9 mph68%30.14 "Hg10 mi
3:56 AM39 °FClear.8 mph65%30.14 "Hg10 mi
2:56 AM34 °FClear.7 mph79%30.16 "Hg10 mi
1:56 AM39 °FClear.8 mph65%30.16 "Hg10 mi
12:56 AM41 °FClear.3 mph58%30.16 "Hg10 mi
Weather by CustomWeather, © 2015

See weather overviewHow to use our weather pages